הכול
Gunnedah Hospital Airport YXGU מזג אוויר
There is no TAF data available at YXGU or any nearby airports.
There is no METAR data available at YXGU. Showing METAR data for YGDH (2 mi N).
Recent GUH METAR history (no data for YXGU)
| Date | Time (AEST) | Flight Rules | Wind Dir. | Speed | Type | Height AGL (ft) | Visibility | Temp (°C) | Temp (°F) | Dew Point (°C) | Dew Point (°F) | Rel. Humid. | Pressure | Density Altitude | Remarks |
|---|---|---|---|---|---|---|---|---|---|---|---|---|---|---|---|
| 04-מאי | 09:00 | n/a | 140° | 5 kt | Missing | 21° | 69° | 12° | 53° | 56% | 1019 mb | 1,412 ft | |||
| 04-מאי | 08:00 | n/a | 150° | 4 kt | Missing | 18° | 64° | 11° | 51° | 64% | 1018 mb | 1,081 ft | |||
| 04-מאי | 07:00 | n/a | 150° | 6 kt | Missing | 16° | 60° | 11° | 51° | 72% | 1018 mb | 841 ft | |||
| 04-מאי | 06:00 | n/a | 150° | 5 kt | Missing | 14° | 57° | 10° | 50° | 77% | 1017 mb | 631 ft | |||
| 04-מאי | 05:00 | n/a | 140° | 5 kt | Missing | 14° | 57° | 9° | 48° | 72% | 1017 mb | 631 ft | |||
| 04-מאי | 04:00 | n/a | 160° | 6 kt | Missing | 14° | 57° | 9° | 48° | 72% | 1017 mb | 631 ft | |||
| 04-מאי | 03:00 | n/a | 160° | 5 kt | Missing | 13° | 55° | 8° | 46° | 72% | 1017 mb | 511 ft | |||
| 04-מאי | 02:00 | n/a | 150° | 4 kt | Missing | 12° | 53° | 8° | 46° | 76% | 1018 mb | 361 ft | |||
| 04-מאי | 01:00 | n/a | 160° | 6 kt | Missing | 13° | 55° | 8° | 46° | 72% | 1018 mb | 481 ft | |||
| 04-מאי | 00:00 | n/a | 140° | 6 kt | Missing | 13° | 55° | 7° | 44° | 67% | 1018 mb | 481 ft | |||
| 03-מאי | 23:00 | n/a | 190° | 4 kt | Missing | 13° | 55° | 7° | 44° | 67% | 1019 mb | 452 ft | |||
| 03-מאי | 22:00 | n/a | 310° | 2 kt | Missing | 13° | 55° | 6° | 42° | 62% | 1019 mb | 452 ft | |||
| 03-מאי | 21:00 | n/a | 80° | 4 kt | Missing | 14° | 57° | 7° | 44° | 63% | 1018 mb | 601 ft | |||
| 03-מאי | 20:00 | n/a | 50° | 3 kt | Missing | 15° | 59° | 7° | 44° | 59% | 1018 mb | 721 ft | |||
| 03-מאי | 19:00 | n/a | 110° | 3 kt | Missing | 16° | 60° | 6° | 42° | 51% | 1017 mb | 871 ft | |||
| 03-מאי | 18:00 | n/a | 120° | 3 kt | Missing | 19° | 66° | 6° | 42° | 43% | 1017 mb | 1,231 ft | |||
| 03-מאי | 17:00 | n/a | 120° | 5 kt | Missing | 24° | 75° | 6° | 42° | 31% | 1017 mb | 1,831 ft | |||
| 03-מאי | 16:00 | n/a | 60° | 2 kt | Missing | 27° | 80° | 7° | 44° | 28% | 1017 mb | 2,191 ft | |||
| 03-מאי | 15:00 | n/a | 50° | 5 kt | Missing | 27° | 80° | 8° | 46° | 30% | 1017 mb | 2,191 ft | |||
| 03-מאי | 14:00 | n/a | 120° | 5 kt | Missing | 28° | 82° | 9° | 48° | 30% | 1018 mb | 2,281 ft | |||
| 03-מאי | 13:00 | n/a | 100° | 7 kt | Missing | 26° | 78° | 8° | 46° | 32% | 1019 mb | 2,012 ft | |||
| 03-מאי | 12:00 | n/a | 90° | 9 kt | Missing | 26° | 78° | 8° | 46° | 32% | 1020 mb | 1,982 ft | |||
| 03-מאי | 11:00 | n/a | 50° | 6 kt | Missing | 25° | 77° | 9° | 48° | 36% | 1021 mb | 1,833 ft | Wind gusting to 16 KT | ||
| 03-מאי | 10:00 | n/a | 90° | 8 kt | Missing | 23° | 73° | 10° | 50° | 44% | 1022 mb | 1,563 ft |
כניסה לאתר
| אין תמיכה בדפדפן שלך. שדרג את הדפדפן שלך |
